Flag for Turkey Weather past 2 weeks in Mersin, Turkey

Now
79 °F

Passing clouds.


Feels Like: 82 °F
Forecast: 67 / 94 °F
Wind: 3 mph from Southeast

Location: Adana / Sakirpasa

Current Time: Jul 30, 2014 at 2:12:56 AM

Latest Report: Jul 30, 2014 at 1:50 AM


Visibility: N/A

Pressure: 29.71 "Hg

Humidity: 89%

Dew point: 75 °F

Location of MersinLocation

Historic Weather in Mersin — Graph

°F

Mersin temperature yesterday

Maximum temperature yesterday: 91 °F (at 12:20 PM)
Minimum temperature yesterday: 77 °F (at 4:20 AM)
Average temperature yesterday: 83 °F

Past Weeks' High & Low Weather Summary

 TemperatureHumidityPressure
High91 °F (Jul 15, 3:20 PM)94% (Jul 16, 2:20 AM)29.86 "Hg (Jul 16, 2:20 AM)
Low73 °F (Jul 17, 3:50 AM)38% (Jul 17, 1:50 PM)29.59 "Hg (Jul 20, 12:20 PM)
Average82 °F72%29.71 "Hg
* Reported Jul 15 12:20 AM — Jul 30 12:50 AM, Mersin, Weather by CustomWeather, © 2014

Note: Actual official high and low records may vary slightly from our data, if they occured in-between our weather recording intervals... More about our weather records

Advertising

Mersin weather history for previous 24 hours

 ConditionsComfort  
Time TempWeatherWind HumidityBarometerVisibility
12:50 AM
Jul 30
79 °FPassing clouds.No wind89%29.71 "HgN/A
12:20 AM79 °FPassing clouds.No wind89%29.71 "HgN/A
11:50 PM
Jul 29
79 °FPassing clouds.2 mph89%29.71 "HgN/A
11:20 PM79 °FPassing clouds.2 mph89%29.71 "HgN/A
10:50 PM79 °FPassing clouds.3 mph89%29.71 "HgN/A
10:20 PM79 °FPassing clouds.5 mph89%29.71 "HgN/A
9:50 PM81 °FPassing clouds.6 mph84%29.71 "HgN/A
9:20 PM81 °FPassing clouds.3 mph84%29.71 "HgN/A
8:50 PM81 °FPassing clouds.5 mph84%29.71 "HgN/A
8:20 PM81 °FScattered clouds.6 mph84%29.71 "HgN/A
7:50 PM82 °FScattered clouds.7 mph79%29.71 "HgN/A
7:20 PM84 °FScattered clouds.8 mph74%29.68 "HgN/A
6:50 PM86 °FScattered clouds.12 mph66%29.68 "HgN/A
6:20 PM88 °FScattered clouds.10 mph62%29.68 "HgN/A
5:50 PM88 °FScattered clouds.12 mph62%29.68 "HgN/A
5:20 PM88 °FPassing clouds.12 mph62%29.68 "HgN/A
4:50 PM90 °FPassing clouds.12 mph55%29.68 "HgN/A
4:20 PM90 °FPassing clouds.13 mph55%29.68 "HgN/A
3:50 PM90 °FScattered clouds.12 mph55%29.68 "HgN/A
3:20 PM90 °FScattered clouds.13 mph55%29.68 "HgN/A
2:50 PM91 °FScattered clouds.14 mph52%29.71 "HgN/A
2:20 PM90 °FScattered clouds.13 mph59%29.71 "HgN/A
1:50 PM91 °FScattered clouds.13 mph52%29.71 "HgN/A
1:20 PM90 °FScattered clouds.10 mph55%29.71 "HgN/A
12:50 PM91 °FScattered clouds.9 mph56%29.71 "HgN/A
12:20 PM91 °FPartly sunny.9 mph52%29.74 "HgN/A
11:50 AM90 °FPartly sunny.7 mph55%29.74 "HgN/A
11:20 AM90 °FScattered clouds.5 mph55%29.74 "HgN/A
10:50 AM88 °FPartly sunny.5 mph59%29.74 "HgN/A
10:20 AM86 °FPartly sunny.5 mph66%29.77 "HgN/A
9:50 AM86 °FScattered clouds.5 mph66%29.77 "HgN/A
9:20 AM84 °FScattered clouds.3 mph74%29.77 "HgN/A
8:50 AM82 °FBroken clouds.3 mph79%29.77 "HgN/A
8:20 AM82 °FBroken clouds.3 mph79%29.77 "HgN/A
7:50 AM81 °FBroken clouds.3 mph84%29.77 "HgN/A
7:20 AM79 °FBroken clouds.2 mph89%29.77 "HgN/A
6:50 AM79 °FBroken clouds.No wind89%29.77 "HgN/A
6:20 AM77 °FPartly cloudy.2 mph94%29.77 "HgN/A
5:50 AM79 °FPartly cloudy.2 mph89%29.77 "HgN/A
5:20 AM77 °FPartly cloudy.3 mph94%29.77 "HgN/A
4:50 AM77 °FPartly cloudy.3 mph94%29.77 "HgN/A
4:20 AM77 °FPartly cloudy.5 mph94%29.77 "HgN/A
3:50 AM79 °FPartly cloudy.2 mph89%29.77 "HgN/A
3:20 AM79 °FPartly cloudy.2 mph89%29.77 "HgN/A
2:50 AM79 °FPartly cloudy.1 mph89%29.77 "HgN/A
2:20 AM79 °FPartly cloudy.3 mph89%29.77 "HgN/A
Weather by CustomWeather, © 2014

See weather overviewHow to use our weather pages